User: anonymous   Login
Location: Berg
(48.5667°N, 13.9833°E)
Time: 17:11:36
(UTC+00:00)
Language:

Lacrosse 5 rocket - Orbit

View from above orbital plane
View from above orbital plane
View from above satellite
View from above satellite

Ground track
Ground track

The orbit data is extracted from the following two-line orbital elements,

1 28647U 05016B   21215.70593275  .00000656  00000-0  55099-4 0  9997
2 28647  56.9983   3.3665 0125033 165.2491 195.2250 15.06503280122070
Epoch (UTC): 03 August 2021 16:56:32
Eccentricity: 0.0125033
inclination: 56.9983°
perigee height: 460 km
apogee height: 633 km
right ascension of ascending node: 3.3665°
argument of perigee: 165.2491°
revolutions per day: 15.06503280
mean anomaly at epoch: 195.2250°
orbit number at epoch: 12207

The dashed part of the orbit path shows where the satellite is in the earth's shadow,  

DLR